Regional Weather Roundup
Issued by NWS

Home | Current Version | Previous Version | Graphics & Text | Print | Product List | Glossary On
Versions: 1 2 3 4 5 6 7 8 9 10 11 12 13 14 15 16 17 18 19 20 21 22 23 24 25 26 27 28 29 30 31 32 33 34 35 36 37 38 39 40 41 42 43 44 45 46 47 48 49 50
000
ASUS43 KLOT 041400
RWRIL

ILLINOIS REGIONAL WEATHER ROUNDUP
NATIONAL WEATHER SERVICE CHICAGO/ROMEOVILLE IL
900 AM CDT TUE AUG 04 2015

NOTE: "FAIR" INDICATES FEW OR NO CLOUDS BELOW 12,000 FEET WITH NO
SIGNIFICANT WEATHER AND/OR OBSTRUCTIONS TO VISIBILITY.

* THESE STATIONS ARE NOT UNDER NWS QUALITY CONTROL. THEY ALSO MAY NOT
  REPORT WEATHER SUCH AS PRECIPITATION OR FOG.

ILZ001-002-007-009-015-016-024-041500-
NORTHWEST ILLINOIS

CITY           SKY/WX    TMP DP  RH WIND       PRES   REMARKS
MOLINE         PTSUNNY   72  62  71 W3        30.01R
STERLING*      SUNNY     72  63  73 W5        29.98R
$$

ILZ003-004-008-010-011-017-018-041500-
NORTH CENTRAL ILLINOIS

CITY           SKY/WX    TMP DP  RH WIND       PRES   REMARKS
ROCKFORD       PTSUNNY   70  57  63 SW5       30.00R
$$

ILZ005-006-012>014-019>023-041500-
NORTHEAST ILLINOIS

CITY           SKY/WX    TMP DP  RH WIND       PRES   REMARKS
CHICAGO-OHARE  PTSUNNY   73  56  54 SW3       29.97R
CHICAGO-MIDWAY PTSUNNY   74  54  49 W6        29.97R
AURORA         SUNNY     68  59  73 CALM      29.99R
WAUKEGAN       SUNNY     72  57  59 VRB6      29.96R
DUPAGE AIRPORT SUNNY     71  56  58 W3        29.98R
WHEELING       SUNNY     73  54  51 SW6       29.98R
NORTHERLY ISL    N/A     75  51  43 W7          N/A
$$

LMZ740>746-041500-
SOUTHERN LAKE MICHIGAN

STATION/POSITION SKY/WX   TEMP    WIND        PRES    VSBY  WAVE
                          AIR SEA DIR/SP/G                  HT/PER
                          (F)     (DEG/KT/KT) (MB)    (MI)  (FT/S)
HARRISON CRIB              70     280/  6/  7   N/A
BURNHAM HARBOR             71     250/  6/  7   N/A
CALUMET HARBOR             71     250/  2/  3   N/A
BURNS HARBOR               69     240/  4/  6 1015.2R
MICHIGAN CITY              67     190/  5/  6   N/A
MICHIGAN CITY 6N           71 73  290/  4/  8   N/A           2/ 4
ST. JOSEPH                 71 73  280/  4/  6   N/A           2/ 3
$$

ILZ025>027-034>036-040-047-049-050-058-095>099-041500-
WEST-CENTRAL ILLINOIS

CITY           SKY/WX    TMP DP  RH WIND       PRES   REMARKS
QUINCY         CLOUDY    71  61  70 E6        29.99F
MACOMB*        PTSUNNY   70  62  76 CALM      30.04R
$$

ILZ028>032-037-038-041>044-048-051>054-059>061-041500-
CENTRAL ILLINOIS

CITY           SKY/WX    TMP DP  RH WIND       PRES   REMARKS
DECATUR        PTSUNNY   72  60  66 SW3       30.02R
PEORIA         MOSUNNY   73  59  61 W3        30.02R
SPRINGFIELD    CLOUDY    74  63  68 CALM      30.02R
TAYLORVILLE    NOT AVBL
$$

ILZ033-039-045-046-055>057-062-063-041500-
EAST-CENTRAL ILLINOIS

CITY           SKY/WX    TMP DP  RH WIND       PRES   REMARKS
CHAMPAIGN      MOSUNNY   71  62  73 VRB3      30.03R
MATTOON        PTSUNNY   73  58  59 S3        30.01R
$$

ILZ079-100>102-041500-
SOUTHWEST ILLINOIS

CITY           SKY/WX    TMP DP  RH WIND       PRES   REMARKS
ALTON          CLOUDY    73  66  78 VRB5      30.01R
CAHOKIA*       PTSUNNY   80  67  64 E3        29.99R HX  82
$$

ILZ064>066-069>071-074>076-080>082-084>086-088>090-092>094-041500-
SOUTH-CENTRAL ILLINOIS

CITY           SKY/WX    TMP DP  RH WIND       PRES   REMARKS
CARBONDALE     MOSUNNY   79  72  79 NE3       29.99R HX  82
MARION         MOSUNNY   81  72  74 NE7       30.00R HX  84
MT. VERNON     CLOUDY    73  64  73 N5        30.02R
SALEM*         CLOUDY    75  67  74 E5        30.01S
$$

ILZ067-068-072-073-078-083-087-091-041500-
SOUTHEAST ILLINOIS

CITY           SKY/WX    TMP DP  RH WIND       PRES   REMARKS
LAWRENCEVILLE  LGT RAIN  73  66  78 N5        30.00R
HARRISBURG*    MOSUNNY   77  74  88 CALM      30.00R
$$

ABBREVIATIONS USED IN REMARKS
   TC - TEMPERATURE IN CELSIUS
  WCI - WIND CHILL INDEX
   HX - HEAT INDEX
  VSB - VISIBILITY
$$




USA.gov is the U.S. government's official web portal to all federal, state and local government web resources and services.